| time (UTC) | temp C | wind direction | speed KPH | gust KPH | rain 1hr cm | rain 24hr cm | rain mn cm | humidity % | barometer mb |
| 20260831230020 | 32 | 203 | 12.9 | 17.7 | 0.00 | 0.00 | 0.00 | 71 | 1008.5 |
| 20260831224519 | 32 | 164 | 3.2 | 12.9 | 0.00 | 0.00 | 0.00 | 68 | 1008.5 |
| 20260831223018 | 32 | 153 | 8.0 | 16.1 | 0.00 | 0.00 | 0.00 | 68 | 1008.6 |
| 20260831221515 | 33 | 119 | 12.9 | 19.3 | 0.00 | 0.00 | 0.00 | 67 | 1008.6 |
| 20260831220017 | 33 | 91 | 11.3 | 24.1 | 0.00 | 0.00 | 0.00 | 66 | 1008.7 |
| 20260831214613 | 33 | 155 | 12.9 | 24.1 | 0.00 | 0.00 | 0.00 | 64 | 1008.4 |
| 20260831213017 | 36 | 151 | 11.3 | 24.1 | 0.00 | 0.00 | 0.00 | 49 | 1008.1 |
| 20260831211507 | 36 | 119 | 8.0 | 12.9 | 0.00 | 0.00 | 0.00 | 48 | 1008.1 |
| 20260831210004 | 36 | 197 | 1.6 | 16.1 | 0.00 | 0.00 | 0.00 | 50 | 1008.4 |
| 20260831204600 | 35 | 208 | 8.0 | 17.7 | 0.00 | 0.00 | 0.00 | 51 | 1008.7 |
| 20260831203057 | 35 | 198 | 16.1 | 24.1 | 0.00 | 0.00 | 0.00 | 56 | 1008.9 |
| 20260831201537 | 35 | 165 | 9.7 | 19.3 | 0.00 | 0.00 | 0.00 | 60 | 1009.1 |
| 20260831200027 | 34 | 360 | 12.9 | 25.7 | 0.00 | 0.00 | 0.00 | 60 | 1009.4 |
| 20260831194627 | 35 | 177 | 4.8 | 17.7 | 0.00 | 0.00 | 0.00 | 57 | 1009.6 |
| 20260831193048 | 33 | 256 | 8.0 | 14.5 | 0.00 | 0.00 | 0.00 | 58 | 1009.7 |
| 20260831191515 | 33 | 219 | 4.8 | 14.5 | 0.00 | 0.00 | 0.00 | 59 | 1010.1 |
| 20260831190014 | 33 | 314 | 14.5 | 20.9 | 0.00 | 0.00 | 0.00 | 57 | 1010.3 |
| 20260831184606 | 33 | 308 | 8.0 | 16.1 | 0.00 | 0.00 | 0.00 | 60 | 1010.7 |
| 20260831183041 | 33 | 257 | 4.8 | 14.5 | 0.00 | 0.00 | 0.00 | 62 | 1011.1 |
| 20260831181512 | 32 | 328 | 8.0 | 16.1 | 0.00 | 0.00 | 0.00 | 64 | 1011.4 |
| 20260831180001 | 31 | 322 | 3.2 | 22.5 | 0.00 | 0.00 | 0.00 | 68 | 1011.8 |
| 20260831174606 | 31 | 289 | 1.6 | 22.5 | 0.00 | 0.00 | 0.00 | 69 | 1012.0 |
| 20260831173102 | 31 | 297 | 8.0 | 19.3 | 0.00 | 0.00 | 0.00 | 72 | 1012.2 |
| 20260831171551 | 30 | 294 | 3.2 | 11.3 | 0.00 | 0.00 | 0.00 | 72 | 1012.4 |
| 20260831170055 | 30 | 182 | 0.0 | 9.7 | 0.00 | 0.00 | 0.00 | 74 | 1012.7 |
| 20260831164548 | 30 | 213 | 9.7 | 19.3 | 0.00 | 0.00 | 0.00 | 75 | 1013.0 |
| 20260831163050 | 30 | 155 | 14.5 | 25.7 | 0.00 | 0.00 | 0.00 | 74 | 1013.1 |
| 20260831161540 | 30 | 159 | 9.7 | 16.1 | 0.00 | 0.00 | 0.00 | 68 | 1013.2 |
| 20260831160035 | 30 | 165 | 0.0 | 12.9 | 0.00 | 0.00 | 0.00 | 71 | 1013.1 |
| 20260831154502 | 30 | 202 | 0.0 | 9.7 | 0.00 | 0.00 | 0.00 | 71 | 1013.4 |
| 20260831153101 | 30 | 171 | 0.0 | 0.0 | 0.00 | 0.00 | 0.00 | 72 | 1013.3 |
| 20260831151603 | 30 | 146 | 4.8 | 11.3 | 0.00 | 0.00 | 0.00 | 71 | 1013.3 |
| 20260831150051 | 30 | 191 | 3.2 | 14.5 | 0.00 | 0.00 | 0.00 | 72 | 1013.2 |
| 20260831144555 | 30 | 132 | 6.4 | 14.5 | 0.00 | 0.00 | 0.00 | 70 | 1012.9 |
| 20260831143046 | 29 | 154 | 4.8 | 11.3 | 0.00 | 0.00 | 0.00 | 70 | 1012.4 |
| 20260831141534 | -17 | 0.0 | 0.0 | 0.00 | 0.00 | 0.00 | 1012.2 | ||
| 20260831140030 | -17 | 0.0 | 0.0 | 0.00 | 0.00 | 0.00 | 1012.0 | ||
| 20260831134526 | -17 | 0.0 | 0.0 | 0.00 | 0.00 | 0.00 | 1011.8 | ||
| 20260831133021 | -17 | 0.0 | 0.0 | 0.00 | 0.00 | 0.00 | 1011.6 | ||
| 20260831131618 | -17 | 0.0 | 0.0 | 0.00 | 0.00 | 0.00 | 1011.3 | ||
| 20260831130048 | -17 | 0.0 | 0.0 | 0.00 | 0.00 | 0.00 | 1011.0 | ||
| 20260831124539 | -17 | 0.0 | 0.0 | 0.00 | 0.00 | 0.00 | 1011.0 | ||
| 20260831123032 | -17 | 0.0 | 0.0 | 0.00 | 0.00 | 0.00 | 1011.0 | ||
| 20260831121534 | -17 | 0.0 | 0.0 | 0.00 | 0.00 | 0.00 | 1011.0 | ||
| 20260831120026 | 26 | 264 | 0.0 | 0.0 | 0.00 | 0.00 | 0.00 | 82 | 1010.9 |
| 20260831114530 | 26 | 263 | 0.0 | 0.0 | 0.00 | 0.00 | 0.00 | 81 | 1010.6 |
| 20260831113023 | 26 | 264 | 0.0 | 0.0 | 0.00 | 0.00 | 0.00 | 80 | 1010.1 |
| 20260831111521 | 26 | 262 | 0.0 | 0.0 | 0.00 | 0.00 | 0.00 | 80 | 1010.1 |
| 20260831110023 | 26 | 291 | 0.0 | 0.0 | 0.00 | 0.00 | 0.00 | 80 | 1009.9 |
| 20260831104523 | 26 | 291 | 0.0 | 0.0 | 0.00 | 0.00 | 0.00 | 81 | 1009.9 |
| 20260831103019 | 26 | 291 | 0.0 | 0.0 | 0.00 | 0.00 | 0.00 | 81 | 1009.9 |
| 20260831101518 | 26 | 291 | 0.0 | 0.0 | 0.00 | 0.00 | 0.00 | 80 | 1009.9 |
| 20260831100016 | 26 | 291 | 0.0 | 0.0 | 0.00 | 0.00 | 0.00 | 81 | 1009.9 |
| 20260831094522 | 26 | 291 | 0.0 | 0.0 | 0.00 | 0.00 | 0.00 | 81 | 1009.9 |
| 20260831093013 | 26 | 290 | 0.0 | 0.0 | 0.00 | 0.00 | 0.00 | 81 | 1009.9 |
| 20260831091513 | 26 | 290 | 0.0 | 0.0 | 0.00 | 0.00 | 0.00 | 81 | 1009.9 |
| 20260831090015 | 26 | 275 | 0.0 | 0.0 | 0.00 | 0.00 | 0.00 | 81 | 1010.0 |
| 20260831084520 | 26 | 297 | 0.0 | 0.0 | 0.00 | 0.00 | 0.00 | 80 | 1010.3 |
| 20260831083047 | 26 | 329 | 0.0 | 9.7 | 0.00 | 0.00 | 0.00 | 80 | 1010.4 |
| 20260831081555 | 26 | 313 | 1.6 | 9.7 | 0.00 | 0.00 | 0.00 | 80 | 1010.5 |
| 20260831080008 | 26 | 319 | 0.0 | 0.0 | 0.00 | 0.00 | 0.00 | 79 | 1010.5 |
| 20260831074529 | 27 | 334 | 0.0 | 0.0 | 0.00 | 0.00 | 0.00 | 79 | 1010.7 |
| 20260831073102 | 27 | 334 | 0.0 | 0.0 | 0.00 | 0.00 | 0.00 | 79 | 1011.0 |
| 20260831071537 | 27 | 331 | 0.0 | 0.0 | 0.00 | 0.00 | 0.00 | 79 | 1011.1 |
| 20260831070007 | 26 | 331 | 0.0 | 0.0 | 0.00 | 0.00 | 0.00 | 80 | 1011.0 |
| 20260831064518 | 26 | 327 | 0.0 | 8.0 | 0.00 | 0.00 | 0.00 | 80 | 1010.8 |
| 20260831063036 | 26 | 300 | 0.0 | 0.0 | 0.00 | 0.00 | 0.00 | 80 | 1010.9 |
| 20260831061538 | 26 | 316 | 0.0 | 9.7 | 0.00 | 0.00 | 0.00 | 80 | 1011.2 |
| 20260831060034 | 26 | 297 | 0.0 | 0.0 | 0.00 | 0.00 | 0.00 | 81 | 1011.4 |
| 20260831054538 | 26 | 298 | 0.0 | 0.0 | 0.00 | 0.00 | 0.00 | 81 | 1011.4 |
| 20260831053034 | 27 | 302 | 0.0 | 0.0 | 0.00 | 0.00 | 0.00 | 80 | 1011.6 |
| 20260831051529 | 27 | 302 | 0.0 | 8.0 | 0.00 | 0.00 | 0.00 | 80 | 1012.0 |
| 20260831050039 | 27 | 318 | 0.0 | 0.0 | 0.00 | 0.00 | 0.00 | 80 | 1011.7 |
| 20260831044525 | 27 | 325 | 0.0 | 0.0 | 0.00 | 0.00 | 0.00 | 79 | 1012.0 |
| 20260831043025 | 27 | 315 | 0.0 | 0.0 | 0.00 | 0.00 | 0.00 | 78 | 1012.1 |
| 20260831041523 | 27 | 315 | 0.0 | 0.0 | 0.00 | 0.00 | 0.00 | 78 | 1011.9 |
| 20260831040039 | 27 | 315 | 0.0 | 0.0 | 0.00 | 0.00 | 0.00 | 78 | 1011.6 |
| 20260831034513 | 28 | 315 | 0.0 | 0.0 | 0.00 | 0.00 | 0.00 | 77 | 1011.5 |
| 20260831033018 | 28 | 316 | 0.0 | 0.0 | 0.00 | 0.00 | 0.00 | 77 | 1011.2 |
| 20260831031509 | 28 | 309 | 0.0 | 6.4 | 0.00 | 0.00 | 0.00 | 76 | 1011.1 |
| 20260831030012 | 28 | 331 | 3.2 | 11.3 | 0.00 | 0.00 | 0.00 | 75 | 1010.9 |
| 20260831024501 | 28 | 290 | 0.0 | 8.0 | 0.00 | 0.00 | 0.00 | 74 | 1010.8 |
| 20260831023100 | 28 | 309 | 0.0 | 9.7 | 0.00 | 0.00 | 0.00 | 74 | 1010.6 |
| 20260831021558 | 29 | 330 | 3.2 | 9.7 | 0.00 | 0.00 | 0.00 | 74 | 1010.3 |
| 20260831020024 | 29 | 279 | 1.6 | 8.0 | 0.00 | 0.00 | 0.00 | 74 | 1010.0 |
| 20260831014522 | 30 | 252 | 1.6 | 11.3 | 0.00 | 0.00 | 0.00 | 73 | 1009.7 |
| 20260831013017 | 30 | 274 | 0.0 | 8.0 | 0.00 | 0.00 | 0.00 | 71 | 1009.7 |
| 20260831011513 | 30 | 255 | 0.0 | 8.0 | 0.00 | 0.00 | 0.00 | 69 | 1009.6 |
| 20260831010012 | 30 | 288 | 6.4 | 11.3 | 0.00 | 0.00 | 0.00 | 69 | 1009.3 |
| 20260831004518 | 30 | 288 | 0.0 | 11.3 | 0.00 | 0.00 | 0.00 | 69 | 1009.2 |
| 20260831003013 | 31 | 246 | 1.6 | 11.3 | 0.00 | 0.00 | 0.00 | 68 | 1009.1 |
| 20260831001509 | 31 | 261 | 3.2 | 11.3 | 0.00 | 0.00 | 0.00 | 67 | 1009.2 |
| 20260831000008 | 31 | 227 | 1.6 | 12.9 | 0.00 | 0.00 | 0.00 | 67 | 1009.1 |
| 20260830234509 | 31 | 232 | 3.2 | 16.1 | 0.00 | 0.00 | 0.00 | 68 | 1009.2 |
| 20260830233011 | 31 | 180 | 1.6 | 17.7 | 0.00 | 0.00 | 0.00 | 67 | 1009.1 |